Weather History for Tucson Davis Monthan, AZ

Change the Weather History Date:

Thursday, April 4, 2013

  Actual Average Record
Temperature  
Mean Temperature 70 °F -  
Max Temperature 87 °F 77 °F 92 °F (1989)
Min Temperature 53 °F 45 °F 33 °F (1999)
Cooling Degree Days 5    
Growing Degree Days 20 (Base 50)    
Moisture  
Dew Point 20 °F    
Average Humidity 17    
Maximum Humidity 33    
Minimum Humidity 5    
Precipitation  
Precipitation 0.00 in - - ()
Sea Level Pressure  
Sea Level Pressure 29.94 in    
Wind  
Wind Speed 7 mph (South)    
Max Wind Speed 10 mph    
Max Gust Speed -    
Visibility 10 miles    
Events      
Averages and records for this station are not official NWS values.
T = Trace of Precipitation, MM = Missing Value Source: NWS Daily Summary

Daily Weather History Graph

Daily Weather History Graph

Search for Another Location

Airport:

Trip Planner

Search our weather history database for the weather conditions in past years. The results will help you decide how hot, cold, wet, or windy it might be!

Date:

Astronomy

Apr. 04, 2013 Rise Set
Actual Time 6:07 AM MST 6:45 PM MST
Civil Twilight 5:42 AM MST 7:10 PM MST
Nautical Twilight 5:13 AM MST 7:39 PM MST
Astronomical Twilight 4:44 AM MST 8:09 PM MST
Moon 2:17 AM MST (4/4) 1:25 PM MST (4/4)
Length of Visible Light 13h 27m
Length of Day
12h 38m
Waning Crescent, 32% of the Moon is Illuminated
Apr 4
Waning Crescent
Apr 10
New
Apr 18
First Quarter
Apr 25
Full
May 2
Last Quarter

Hourly Weather History & Observations

Time (MST) Temp. Dew Point Humidity Pressure Visibility Wind Dir Wind Speed Gust Speed Precip Events Conditions
12:58 AM 56.7 °F 23.7 °F 28% 29.98 in 10.0 mi SSE 5.8 mph - N/A   Clear
1:58 AM 56.5 °F 22.8 °F 27% 29.98 in 10.0 mi ESE 5.8 mph - N/A   Clear
2:58 AM 55.9 °F 22.8 °F 28% 29.98 in 10.0 mi SSE 5.8 mph - N/A   Clear
3:58 AM 54.3 °F 23.0 °F 30% 30.00 in 10.0 mi SE 9.2 mph - N/A   Clear
4:58 AM 54.1 °F 23.2 °F 30% 29.99 in 10.0 mi ESE 8.1 mph - N/A   Clear
5:58 AM 53.6 °F 24.6 °F 33% 30.01 in 10.0 mi SE 10.4 mph - N/A   Clear
6:58 AM 53.6 °F 24.6 °F 33% 30.03 in 10.0 mi SSE 9.2 mph - N/A   Clear
7:58 AM 62.4 °F 26.6 °F 26% 30.02 in 10.0 mi SSE 8.1 mph - N/A   Clear
8:58 AM 69.8 °F 27.9 °F 21% 30.01 in 10.0 mi SSE 5.8 mph - N/A   Clear
9:58 AM 75.0 °F 26.2 °F 16% 29.99 in 10.0 mi SE 8.1 mph - N/A   Clear
10:58 AM 79.9 °F 22.5 °F 12% 29.97 in 10.0 mi Variable 3.5 mph - N/A   Clear
11:58 AM 83.5 °F 18.9 °F 9% 29.95 in 10.0 mi ESE 9.2 mph - N/A   Partly Cloudy
12:58 PM 84.9 °F 17.8 °F 8% 29.92 in 10.0 mi Variable 4.6 mph - N/A   Partly Cloudy
1:58 PM 85.6 °F 15.8 °F 7% 29.90 in 10.0 mi NNE 2.3 mph - N/A   Clear
2:58 PM 87.1 °F 12.9 °F 6% 29.87 in 10.0 mi SSW 9.2 mph - N/A   Clear
3:58 PM 87.1 °F 8.6 °F 5% 29.85 in 10.0 mi NW 9.2 mph - N/A   Clear
4:58 PM 85.1 °F 11.3 °F 6% 29.86 in 10.0 mi NNW 5.8 mph - N/A   Clear
5:58 PM 83.8 °F 10.4 °F 6% 29.86 in 10.0 mi NW 6.9 mph - N/A   Clear
6:58 PM 81.3 °F 12.0 °F 7% 29.87 in 10.0 mi NW 10.4 mph - N/A   Clear
7:58 PM 77.4 °F 21.4 °F 12% 29.88 in 10.0 mi NNW 10.4 mph - N/A   Clear
8:58 PM 75.2 °F 23.4 °F 14% 29.89 in 10.0 mi WNW 5.8 mph - N/A   Clear
9:58 PM 72.3 °F 24.1 °F 16% 29.91 in 10.0 mi WSW 4.6 mph - N/A   Clear
10:58 PM 68.7 °F 22.1 °F 17% 29.90 in 10.0 mi SW 6.9 mph - N/A   Clear
11:58 PM 68.4 °F 20.8 °F 16% 29.90 in 10.0 mi SW 5.8 mph - N/A   Clear